FW1504 Weather Reports


time (UTC)temp
F
wind
direction
speed
knots
gust
knots
rain 1hr
in
rain 24hr
in
rain mn
in
humidity
%
barometer
mb
20260503010013 71 360 0.0 2.6 0.00 0.00 0.00 46 1018.1
20260503004512 71 360 0.0 1.7 0.00 0.00 0.00 44 1018.0
20260503003012 72 360 0.0 2.6 0.00 0.00 0.00 43 1018.1
20260503001512 72 360 0.9 4.3 0.00 0.00 0.00 43 1017.9
20260503000011 73 360 0.9 3.5 0.00 0.00 0.00 42 1017.9
20260502234510 73 360 0.9 3.5 0.00 0.00 0.00 42 1018.0
20260502233010 74 360 0.9 2.6 0.00 0.00 0.00 42 1018.0
20260502231515 74 360 0.9 4.3 0.00 0.00 0.00 42 1018.0
20260502230009 74 360 0.9 3.5 0.00 0.00 0.00 41 1018.1
20260502224505 74 360 0.0 1.7 0.00 0.00 0.00 41 1018.1
20260502223004 74 360 0.0 2.6 0.00 0.00 0.00 41 1018.2
20260502221502 74 360 0.9 4.3 0.00 0.00 0.00 42 1018.2
20260502220001 74 360 0.9 4.3 0.00 0.00 0.00 44 1018.3
20260502214558 73 360 0.9 2.6 0.00 0.00 0.00 42 1018.7
20260502213057 73 360 0.0 4.3 0.00 0.00 0.00 43 1018.8
20260502211557 73 360 0.9 3.5 0.00 0.00 0.00 41 1018.9
20260502210105 73 360 0.9 4.3 0.00 0.00 0.00 42 1019.2
20260502204553 73 360 0.9 4.3 0.00 0.00 0.00 42 1019.2
20260502203053 74 360 0.0 2.6 0.00 0.00 0.00 44 1019.5
20260502201559 74 360 0.9 7.8 0.00 0.00 0.00 43 1019.6
20260502200059 74 360 0.0 2.6 0.00 0.00 0.00 42 1019.5
20260502194550 74 360 0.0 2.6 0.00 0.00 0.00 44 1019.7
20260502193046 73 360 0.9 4.3 0.00 0.00 0.00 43 1019.7
20260502191545 73 360 0.0 2.6 0.00 0.00 0.00 45 1019.9
20260502190052 73 360 0.0 3.5 0.00 0.00 0.00 43 1020.0
20260502184554 73 360 0.9 4.3 0.00 0.00 0.00 47 1020.3
20260502183043 71 360 2.6 5.2 0.00 0.00 0.00 43 1020.6
20260502181542 72 360 0.9 7.0 0.00 0.00 0.00 45 1020.6
20260502180104 71 360 0.9 2.6 0.00 0.00 0.00 45 1020.9
20260502163032 71 360 0.0 3.5 0.00 0.00 0.00 54 1021.6
20260502161529 70 360 0.9 2.6 0.00 0.00 0.00 48 1021.5
20260502151518 68 181 1.7 5.2 0.00 0.00 0.00 50 1021.6
20260502123036 50 74 0.0 0.9 0.00 0.00 0.00 74 1021.3
20260502121533 49 41 0.0 0.9 0.00 0.00 0.00 75 1021.1
20260502114530 50 40 0.0 1.7 0.00 0.00 0.00 75 1021.0
20260502113028 50 40 0.0 0.9 0.00 0.00 0.00 75 1021.0
20260502111527 50 39 0.0 0.0 0.00 0.00 0.00 74 1021.2
20260502110027 50 27 0.0 4.3 0.00 0.00 0.00 76 1021.3
20260502104537 49 33 1.7 4.3 0.00 0.00 0.00 79 1021.2
20260502103020 48 119 0.0 0.0 0.00 0.00 0.00 79 1020.6
20260502101518 48 119 0.0 0.0 0.00 0.00 0.00 78 1020.4
20260502091511 49 119 0.0 0.0 0.00 0.00 0.00 76 1019.6
20260502080108 52 119 0.0 0.0 0.00 0.00 0.00 71 1019.4
20260502070054 53 119 0.0 0.0 0.00 0.00 0.00 68 1019.5
20260502064550 53 119 0.0 0.0 0.00 0.00 0.00 69 1019.6
20260502063051 53 119 0.0 0.9 0.00 0.00 0.00 68 1019.7
20260502061548 54 119 0.0 0.0 0.00 0.00 0.00 66 1019.7
20260502060046 54 119 0.0 0.9 0.00 0.00 0.00 66 1019.6
20260502054547 54 119 0.9 1.7 0.00 0.00 0.00 65 1019.6
20260502053052 54 119 0.9 1.7 0.00 0.00 0.00 65 1019.6
20260502051554 55 119 0.0 1.7 0.00 0.00 0.00 66 1019.6
20260502050049 55 119 0.0 0.0 0.00 0.00 0.00 66 1019.6
20260502044541 56 119 0.0 0.0 0.00 0.00 0.00 65 1019.7
20260502043038 57 360 0.0 0.0 0.00 0.00 0.00 64 1019.6
20260502041539 57 360 0.0 0.0 0.00 0.00 0.00 64 1019.5
20260502040036 58 360 0.0 1.7 0.00 0.00 0.00 61 1019.4
20260502034537 59 360 0.0 1.7 0.00 0.00 0.00 59 1019.3
20260502033039 59 360 0.0 1.7 0.00 0.00 0.00 58 1019.3
20260502031538 60 120 0.0 1.7 0.00 0.00 0.00 57 1019.2
20260502030035 60 360 0.0 1.7 0.00 0.00 0.00 55 1019.1
20260502024536 60 360 0.0 2.6 0.00 0.00 0.00 54 1019.1
20260502023033 61 360 0.0 0.9 0.00 0.00 0.00 54 1019.0
20260502021534 61 360 0.0 0.9 0.00 0.00 0.00 53 1018.8
20260502020032 62 360 0.0 1.7 0.00 0.00 0.00 52 1018.8
20260502014534 62 360 0.0 1.7 0.00 0.00 0.00 52 1018.5
20260502013031 63 113 0.0 1.7 0.00 0.00 0.00 50 1018.3
20260502011550 64 113 0.0 1.7 0.00 0.00 0.00 49 1017.9